This is the latest recevied weather packets stored in our database for station/object SQ7IQO. If no packets are shown the sender has not sent any weather packets the latest 10 day(s).
| Time | Temp. | Humidity | Pressure | Rain* | Wind** | Luminosity | Snow |
|---|---|---|---|---|---|---|---|
| 1787640756 | 18.33° C | 74% | 1021.9 hPa | 0 mm | 0 m/s | - | - |
| 1787640696 | 18.33° C | 74% | 1021.9 hPa | 0 mm | 0 m/s | - | - |
| 1787640636 | 18.89° C | 73% | 1021.9 hPa | 0 mm | 0 m/s | - | - |
| 1787640576 | 19.44° C | 71% | 1021.9 hPa | 0 mm | 0 m/s | - | - |
| 1787640516 | 19.44° C | 72% | 1021.9 hPa | 0 mm | 0 m/s | - | - |
| 1787640456 | 19.44° C | 70% | 1021.9 hPa | 0 mm | 0 m/s | - | - |
| 1787640396 | 20° C | 70% | 1021.9 hPa | 0 mm | 0 m/s | - | - |
| 1787640336 | 20° C | 68% | 1021.9 hPa | 0 mm | 0 m/s | - | - |
| 1787640276 | 20.56° C | 69% | 1021.9 hPa | 0 mm | 0 m/s | - | - |
| 1787640216 | 20° C | 71% | 1021.9 hPa | 0 mm | 0 m/s | - | - |
| 1787640156 | 20° C | 71% | 1021.9 hPa | 0 mm | 0 m/s | - | - |
| 1787640096 | 18.89° C | 74% | 1022 hPa | 0 mm | 0 m/s | - | - |
| 1787640036 | 18.89° C | 73% | 1022 hPa | 0 mm | 0 m/s | - | - |
| 1787639976 | 18.89° C | 74% | 1022 hPa | 0 mm | 0 m/s | - | - |
| 1787639916 | 18.89° C | 74% | 1022 hPa | 0 mm | 0 m/s | - | - |
| 1787639856 | 18.89° C | 74% | 1022 hPa | 0 mm | 0 m/s | - | - |
| 1787639796 | 18.89° C | 74% | 1022 hPa | 0 mm | 0 m/s | - | - |
| 1787639736 | 18.89° C | 73% | 1022 hPa | 0 mm | 0 m/s | - | - |
| 1787639676 | 18.89° C | 72% | 1022.1 hPa | 0 mm | 0 m/s | - | - |
| 1787639616 | 18.89° C | 73% | 1022 hPa | 0 mm | 0 m/s | - | - |
| 1787639556 | 18.89° C | 75% | 1022.1 hPa | 0 mm | 0 m/s | - | - |
| 1787639496 | 18.33° C | 75% | 1022.1 hPa | 0 mm | 0 m/s | - | - |
| 1787639436 | 18.33° C | 75% | 1022.1 hPa | 0 mm | 0 m/s | - | - |
| 1787639376 | 18.33° C | 78% | 1022.1 hPa | 0 mm | 0 m/s | - | - |
| 1787639316 | 17.78° C | 78% | 1022.1 hPa | 0 mm | 0 m/s | - | - |
* Rain latest hour (hover to see other rain measurements)
** Current wind speed in m/s (hover to see current wind gust speed)